Content
SEND FEEDBACK

Daily
Averages
Monthly
Summary
United States of America

MIDLAND, MICHIGAN


Home > North America > United States > Michigan
Elevation: 628 feet     Latitude: 43 39N     Longitude: 084 15W

WEATHER
 
SELECT A DAY
Number of Records: 106,276;   Date Range: 1/13/10 - 7/24/14
 
SHARE

PRINT THIS DATA

[ ← Previous Day ]
WEATHER ALMANAC - JANUARY 10, 2013
[ Next Day → ]
[ °C ]   °F
Weather ElementAverageHighLow
Temperature32.5 °F43.9 °F (3:14 pm)21.2 °F (8:14 am)
Dewpoint26.3 °F32.9 °F (11:54 pm)20.1 °F (4:34 am)
Humidity79.7 %96 % (5:14 am)54 % (1:34 pm)
Barometer30.42 in30.54 in (7:34 am)30.16 in (11:35 pm)
Wind Speed3.6 mph9.2 mph (8:14 pm)
Weather ElementAverage
Visibility9.7 mi
Wind DirectionENE (65.5 °)

Weather ElementTotal
Precipitation0.06 in
Heating Degree Days32.5 (Base 65)
Averaged from 66 records on January 10, 2013
WEATHER CONDITIONS BREAKOUT
WIND DIRECTION BREAKOUT
WEATHER BY HOUR - JANUARY 10, 2013
[ °C ]   °F
Local TimeTemperatureDewpointHumidityBarometerVisibilityWind DirectionWind SpeedGust SpeedPrecipitationEventsConditions
12:34 AM26.4 °F24.6 °F93 %30.40 in10.0 miCalmClear
12:54 AM25.5 °F22.8 °F89 %30.40 in10.0 miCalmClear
1:34 AM25.3 °F23.7 °F94 %30.42 in10.0 miCalmClear
1:54 AM24.8 °F23.0 °F93 %30.45 in10.0 miCalmClear
2:14 AM24.3 °F22.1 °F91 %30.47 in10.0 miCalmClear
2:34 AM25.0 °F22.8 °F91 %30.48 in10.0 miCalmClear
2:54 AM26.8 °F24.6 °F92 %30.50 in10.0 miCalmClear
3:14 AM24.8 °F22.6 °F91 %30.50 in10.0 miCalmClear
3:34 AM23.7 °F22.1 °F94 %30.51 in10.0 miCalmClear
3:54 AM24.8 °F23.2 °F94 %30.51 in10.0 miCalmClear
4:14 AM24.3 °F23.0 °F95 %30.51 in10.0 miCalmClear
4:34 AM21.9 °F20.1 °F93 %30.50 in10.0 miCalmClear
5:14 AM23.0 °F22.1 °F96 %30.49 in10.0 miCalmClear
5:34 AM23.0 °F21.9 °F96 %30.50 in10.0 miCalmClear
5:54 AM22.5 °F21.6 °F96 %30.50 in10.0 miCalmClear
6:14 AM22.8 °F21.9 °F96 %30.50 in10.0 miCalmClear
6:34 AM22.1 °F21.2 °F96 %30.52 in10.0 miCalmClear
6:54 AM22.1 °F21.2 °F96 %30.52 in10.0 miCalmClear
7:14 AM21.9 °F21.0 °F96 %30.53 in10.0 miCalmClear
7:34 AM21.7 °F20.7 °F96 %30.54 in10.0 miCalmClear
7:54 AM22.1 °F21.2 °F96 %30.54 in10.0 miCalmClear
8:14 AM21.2 °F20.3 °F96 %30.54 in10.0 miCalmClear
8:20 AM21.2 °F20.3 °F96 %30.54 in10.0 miCalmClear
8:54 AM21.6 °F20.7 °F96 %30.54 in10.0 miCalmClear
9:14 AM23.0 °F22.1 °F96 %30.53 in10.0 miCalmClear
9:34 AM25.7 °F24.8 °F96 %30.53 in10.0 miCalmClear
9:54 AM28.6 °F26.8 °F93 %30.53 in10.0 miCalmClear
10:14 AM31.8 °F28.8 °F88 %30.53 in10.0 miCalmClear
10:54 AM35.8 °F28.2 °F74 %30.53 in10.0 miCalmClear
11:14 AM37.6 °F29.3 °F72 %30.52 in10.0 miSE (140°)5.8 mphClear
11:34 AM38.5 °F28.8 °F68 %30.52 in10.0 miSouth (170°)5.8 mphClear
11:54 AM39.2 °F28.6 °F66 %30.51 in10.0 miSSE (150°)5.8 mphClear
12:14 PM39.7 °F28.4 °F64 %30.50 in10.0 miSSE (160°)5.8 mphClear
12:34 PM40.6 °F28.4 °F62 %30.48 in10.0 miSSE (160°)5.8 mphClear
12:55 PM41.2 °F28.2 °F60 %30.47 in10.0 miSE (140°)5.8 mphClear
1:14 PM42.3 °F28.0 °F57 %30.46 in10.0 miSSE (160°)3.5 mphClear
1:34 PM43.3 °F27.9 °F54 %30.45 in10.0 miESE (120°)6.9 mphClear
1:54 PM43.5 °F27.9 °F54 %30.43 in10.0 miSE (130°)5.8 mphClear
2:34 PM42.3 °F28.0 °F57 %30.42 in10.0 miSE (140°)6.9 mphClear
2:54 PM43.7 °F28.4 °F55 %30.41 in10.0 miSSE (160°)4.6 mphClear
3:14 PM43.9 °F28.4 °F55 %30.41 in10.0 miSSE (160°)4.6 mphClear
3:35 PM43.0 °F27.9 °F55 %30.40 in10.0 miSE (140°)5.8 mphClear
3:54 PM42.6 °F27.5 °F55 %30.39 in10.0 miESE (110°)6.9 mphClear
4:14 PM41.9 °F30.2 °F63 %30.38 in10.0 miEast (80°)4.6 mphClear
4:34 PM41.0 °F30.2 °F65 %30.38 in10.0 miEast (90°)4.6 mphClear
4:54 PM40.3 °F30.4 °F68 %30.38 in10.0 miEast (90°)5.8 mphClear
5:15 PM39.9 °F30.0 °F68 %30.37 in10.0 miESE (110°)6.9 mphClear
5:34 PM39.4 °F28.8 °F66 %30.37 in10.0 miEast (100°)8.1 mphClear
5:54 PM38.5 °F28.8 °F68 %30.36 in10.0 miESE (110°)4.6 mphClear
6:15 PM38.5 °F28.6 °F68 %30.36 in10.0 miESE (110°)5.8 mphClear
6:34 PM38.5 °F28.8 °F68 %30.34 in10.0 miEast (100°)5.8 mphClear
6:54 PM38.5 °F28.6 °F68 %30.34 in10.0 miEast (90°)6.9 mphClear
7:15 PM36.9 °F28.8 °F72 %30.32 in10.0 miEast (90°)6.9 mphClear
7:34 PM36.7 °F28.8 °F73 %30.32 in10.0 miEast (100°)8.1 mphClear
7:55 PM36.5 °F29.1 °F75 %30.32 in10.0 miESE (120°)8.1 mphClear
8:14 PM36.5 °F28.9 °F74 %30.30 in10.0 miESE (110°)9.2 mphClear
8:34 PM36.5 °F28.8 °F74 %30.29 in10.0 miESE (110°)8.1 mphClear
8:55 PM36.0 °F28.9 °F76 %30.28 in10.0 miESE (110°)8.1 mphClear
9:14 PM35.8 °F28.9 °F76 %30.27 in10.0 miESE (120°)6.9 mphClear
9:54 PM35.8 °F29.1 °F77 %30.25 in10.0 miEast (100°)5.8 mphScattered Clouds
10:14 PM35.6 °F29.7 °F79 %30.24 in10.0 miEast (90°)6.9 mphRainLight Rain
10:35 PM35.4 °F30.0 °F81 %30.22 in10.0 miEast (80°)6.9 mphDrizzle
10:54 PM34.9 °F31.1 °F86 %30.20 in7.0 miEast (90°)6.9 mphOvercast
11:14 PM34.9 °F31.6 °F88 %30.19 in7.0 miEast (100°)5.8 mph0.01 inOvercast
11:35 PM34.7 °F32.5 °F92 %30.16 in4.0 miEast (80°)8.1 mph0.02 inOvercast
11:54 PM34.9 °F32.9 °F92 %30.16 in5.0 miEast (100°)5.8 mph0.03 inOvercast
Hourly data recorded from KIKW, located miles away from Midland, Michigan







STORIES FROM OUR PARTNERS